AAY2130 PHLI-PHKO

Flight info

Callsign AAY2130
Flight time N/A
Altitude 35000
Route LIH V15 HNL V2 LNY VECKI9
Aircraft A320/M-SDE3FGHIRWY/LB1

Departure

Time 2026-05-06 02:33
Airport Lihue Airport (PHLI)

Arrival

Time N/A
Airport Ellison Onizuka Kona International Airport at Keāhole (PHKO)
Time Latitude Longitude Altitude Speed Heading
2026-05-06 02:19 21.97795 -159.34811 153 ft 0 kts 315°
2026-05-06 02:28 21.97794 -159.34810 153 ft 2 kts 315°
2026-05-06 02:28 21.97778 -159.34789 153 ft 4 kts 296°
2026-05-06 02:28 21.97770 -159.34762 153 ft 4 kts 268°
2026-05-06 02:29 21.97775 -159.34735 153 ft 4 kts 240°
2026-05-06 02:29 21.97788 -159.34716 153 ft 0 kts 225°
2026-05-06 02:31 21.97787 -159.34717 153 ft 1 kts 225°
2026-05-06 02:31 21.97751 -159.34756 153 ft 10 kts 225°
2026-05-06 02:31 21.97702 -159.34809 153 ft 15 kts 225°
2026-05-06 02:31 21.97606 -159.34881 153 ft 16 kts 170°
2026-05-06 02:32 21.97526 -159.34801 154 ft 17 kts 133°
2026-05-06 02:32 21.97464 -159.34733 154 ft 6 kts 131°
2026-05-06 02:32 21.97464 -159.34702 153 ft 3 kts 47°
2026-05-06 02:32 21.97470 -159.34697 153 ft 6 kts 42°
2026-05-06 02:33 21.97698 -159.34453 138 ft 86 kts 46°
2026-05-06 02:33 21.98054 -159.34059 120 ft 130 kts 45°
2026-05-06 02:33 21.99142 -159.31925 1338 ft 153 kts 94°
2026-05-06 02:34 21.98990 -159.30804 1889 ft 158 kts 105°
2026-05-06 02:34 21.98403 -159.29825 2150 ft 181 kts 142°
2026-05-06 02:34 21.97143 -159.29231 2317 ft 214 kts 163°
2026-05-06 02:34 21.95638 -159.28750 2681 ft 238 kts 165°
2026-05-06 02:35 21.93971 -159.28246 3117 ft 260 kts 166°
2026-05-06 02:35 21.92276 -159.27463 3862 ft 271 kts 142°
2026-05-06 02:35 21.91087 -159.25871 4697 ft 277 kts 122°
2026-05-06 02:35 21.90109 -159.24072 5552 ft 280 kts 120°
2026-05-06 02:36 21.89169 -159.22223 6408 ft 275 kts 119°
2026-05-06 02:36 21.88313 -159.20474 6775 ft 257 kts 126°
2026-05-06 02:36 21.87046 -159.19195 6712 ft 250 kts 157°
2026-05-06 02:36 21.86725 -159.19038 6683 ft 248 kts 163°
2026-05-06 02:37 21.86472 -159.18945 6676 ft 248 kts 167°
2026-05-06 02:37 21.84768 -159.18904 6628 ft 240 kts 198°
2026-05-06 02:37 21.83379 -159.19751 6675 ft 231 kts 227°
2026-05-06 02:37 21.82634 -159.21265 6811 ft 229 kts 261°
2026-05-06 02:38 21.82628 -159.22976 6841 ft 240 kts 276°
2026-05-06 02:38 21.82801 -159.24864 6402 ft 267 kts 275°
2026-05-06 02:38 21.83000 -159.26871 5747 ft 271 kts 277°
2026-05-06 02:38 21.83257 -159.28877 5120 ft 269 kts 278°
2026-05-06 02:39 21.83500 -159.30863 4538 ft 265 kts 278°
2026-05-06 02:39 21.83763 -159.32815 3974 ft 261 kts 282°
2026-05-06 02:39 21.84291 -159.34636 3523 ft 248 kts 297°
2026-05-06 02:39 21.85249 -159.36079 3256 ft 229 kts 317°
2026-05-06 02:40 21.86560 -159.36896 2857 ft 210 kts 346°
2026-05-06 02:40 21.87993 -159.36909 2332 ft 212 kts 14°
2026-05-06 02:40 21.89320 -159.36127 1829 ft 221 kts 45°
2026-05-06 02:40 21.90309 -159.34952 1309 ft 200 kts 48°
2026-05-06 02:41 21.91244 -159.34009 1115 ft 168 kts 35°
2026-05-06 02:41 21.92241 -159.33551 952 ft 151 kts 10°
2026-05-06 02:41 21.93248 -159.33580 760 ft 138 kts 355°
2026-05-06 02:41 21.94178 -159.33648 576 ft 130 kts
2026-05-06 02:42 21.95070 -159.33602 403 ft 127 kts
2026-05-06 02:42 21.95952 -159.33594 237 ft 127 kts
2026-05-06 02:42 21.96827 -159.33590 101 ft 121 kts
2026-05-06 02:42 21.97492 -159.33573 101 ft 68 kts
2026-05-06 02:43 21.97762 -159.33598 104 ft 20 kts 339°
2026-05-06 02:43 21.97883 -159.33670 103 ft 20 kts 330°
2026-05-06 02:43 21.97940 -159.33745 104 ft 13 kts 278°
2026-05-06 02:43 21.97942 -159.33827 108 ft 8 kts 270°
2026-05-06 02:44 21.97942 -159.33860 110 ft 0 kts 271°